Temperature
24 23 22 22 24 26 28 29 29 29 29 28 28 27 26 25 24 22 21 21 21 20 20 20 20 19 19 19 19 19 19 19 19 19 19 19 19 19 19 19 19 19 18 18 18 18 18 18 18
23 23 23 25 26 27 28 29 29 29 29 28 28 27 26 24 23 22 21 21 21 20 19 20 20 19 19 19 19 19 19 19 19 19 19 19 19 19 19 19 18 18 18 18 18 18 18 18 18
24 24 25 27 27 28 28 29 29 29 29 28 27 26 25 24 23 22 21 21 21 20 20 20 19 19 19 19 19 19 19 19 19 19 19 19 19 19 18 18 18 18 18 18 18 18 18 18 18
23 25 27 28 28 30 30 30 30 29 29 28 27 26 24 23 22 22 21 21 21 20 20 20 19 19 19 19 19 19 19 19 19 19 19 19 19 19 19 18 18 18 18 18 18 18 18 18 18
25 26 28 29 29 30 31 31 30 29 29 28 27 25 23 22 22 22 21 21 21 20 20 20 20 19 19 19 19 19 19 19 19 19 19 19 19 19 19 18 18 18 18 18 18 18 18 18 18
26 28 28 29 30 31 31 30 30 29 29 27 26 25 23 22 22 22 22 22 21 20 20 20 20 20 19 19 19 19 19 19 19 19 19 19 19 19 18 18 18 18 18 18 18 18 18 18 18
27 28 30 31 30 30 31 31 30 30 29 28 27 25 23 23 22 22 22 22 21 21 20 20 20 20 19 19 19 19 19 19 19 19 19 19 19 19 19 18 19 19 19 19 18 18 19 19 19
30 30 31 31 31 30 31 31 30 29 28 28 27 26 24 23 23 22 22 22 21 21 20 20 19 19 19 19 19 19 19 19 19 19 19 19 19 19 19 19 19 19 19 19 19 19 19 19 19
31 31 31 32 31 31 32 31 30 29 29 28 27 25 24 23 23 22 22 22 21 21 21 20 20 20 19 19 19 19 19 19 19 19 19 19 18 18 18 19 19 19 19 19 19 19 19 19 19
32 31 32 33 33 32 32 31 31 30 29 28 26 25 24 23 23 23 22 22 22 21 21 21 20 20 20 19 19 19 19 19 19 19 19 19 19 18 19 19 19 19 19 19 19 19 19 19 19
34 33 33 34 33 33 32 31 31 30 29 28 26 25 24 24 23 23 22 22 22 21 21 21 20 20 20 20 19 19 19 19 19 19 19 19 19 19 19 19 19 19 19 19 19 19 19 19 19
34 34 34 34 33 33 32 32 31 30 29 27 26 25 25 24 24 23 23 22 22 21 21 21 20 20 20 20 20 20 19 19 19 19 19 19 19 19 19 19 19 19 19 19 19 19 19 19 19
34 34 34 34 33 33 32 32 31 30 29 28 26 26 25 25 24 24 23 22 22 21 21 21 20 20 20 20 20 20 20 19 19 19 19 19 19 19 19 19 19 19 19 19 19 19 19 19 19
34 34 34 34 33 33 33 32 31 30 29 28 27 26 25 25 25 24 23 22 22 21 21 20 20 20 20 20 20 20 20 20 19 19 19 19 19 19 19 19 19 19 19 19 19 19 19 19 19
33 33 33 34 33 33 32 31 31 30 29 28 27 26 26 25 25 24 23 23 22 21 21 21 20 20 20 20 20 20 20 20 19 19 19 19 19 19 19 19 19 19 19 19 19 19 19 19 19
32 31 30 32 33 33 32 30 31 30 30 29 28 27 26 26 25 24 24 23 22 22 21 21 21 20 20 20 20 20 20 20 19 19 19 19 19 19 19 19 19 19 19 19 19 19 19 19 19
31 30 30 31 33 33 32 31 32 31 30 30 29 28 27 26 25 24 24 23 22 22 21 21 21 20 20 20 20 20 20 19 19 19 19 19 19 19 19 19 19 19 19 19 19 19 19 19 19
31 31 31 31 33 33 33 32 32 32 31 30 29 28 27 26 25 25 24 23 22 22 21 21 20 20 20 20 20 20 19 19 19 19 19 19 19 19 19 19 19 19 19 19 19 19 19 19 19
33 32 32 33 34 33 33 32 32 32 32 31 30 29 28 27 26 25 24 23 22 22 21 21 20 20 20 20 20 20 19 19 19 19 19 19 19 19 19 19 19 19 19 19 19 19 19 19 19
34 33 33 33 34 34 33 32 32 33 32 31 31 30 28 27 26 25 24 24 23 22 21 21 21 20 20 20 20 20 20 20 19 19 19 19 19 19 19 19 19 19 19 19 19 19 19 19 19
34 34 34 33 34 34 32 31 31 32 33 32 31 30 29 28 27 25 25 24 23 22 21 21 21 21 20 20 20 20 20 20 20 19 19 19 19 19 19 19 19 19 19 19 19 19 19 19 19
33 35 35 34 33 32 32 30 31 32 32 33 32 31 30 29 27 26 25 24 24 23 22 21 21 21 21 20 20 20 20 20 20 20 19 19 19 19 19 19 19 19 19 19 19 19 19 19 19
34 35 34 34 33 32 32 31 31 32 32 32 32 32 31 30 28 27 26 25 24 23 22 22 21 21 21 20 20 20 20 20 20 20 20 19 19 19 19 19 19 19 19 19 19 19 19 19 19
35 34 33 33 32 30 31 31 31 32 33 33 33 32 31 30 29 27 26 25 25 24 23 22 21 21 21 21 20 20 20 20 20 20 20 20 19 19 19 19 19 19 19 19 19 19 19 19 19
34 32 30 30 29 29 31 32 32 33 34 34 33 32 31 31 29 28 27 26 25 24 23 22 22 21 21 21 20 20 20 20 20 20 20 20 20 19 20 19 19 19 19 19 19 19 19 19 19
34 33 30 29 29 30 31 31 33 34 34 33 33 32 31 30 30 29 27 26 25 24 24 23 22 22 21 21 21 20 20 20 20 20 20 20 20 20 20 20 20 19 19 19 19 19 19 19 19
33 33 34 32 30 30 31 31 33 34 33 33 33 32 31 30 30 29 28 26 26 25 24 23 23 22 21 21 21 21 21 20 20 20 20 20 20 20 20 20 20 19 19 19 19 19 19 19 19
34 34 33 32 30 29 30 30 31 31 32 33 33 32 31 30 30 29 28 27 26 25 24 24 23 22 21 21 21 21 21 21 20 20 20 20 20 20 20 20 20 19 19 19 19 19 19 19 19
33 33 33 32 31 30 29 30 32 31 31 33 32 32 31 30 29 28 28 27 26 25 25 24 23 22 21 21 21 21 21 21 20 20 20 20 20 20 20 20 20 20 19 19 19 19 19 19 19
34 33 33 31 30 30 30 29 32 32 32 32 32 31 31 30 29 28 27 26 26 25 24 24 23 22 21 21 21 21 21 21 20 20 20 20 20 20 20 20 20 20 19 19 19 19 19 18 18
Wind_Speed
11 11 9 5 4 1 9 13 12 12 11 11 12 12 15 15 10 8 6 8 10 11 11 11 11 11 12 13 14 15 16 16 16 16 17 17 17 18 18 19 21 22 22 22 21 21 21 21 21
10 12 8 4 2 5 11 12 13 12 11 11 13 15 16 14 13 9 8 7 9 11 11 12 13 13 14 14 14 15 16 16 16 17 17 18 18 18 19 20 21 21 21 21 20 20 20 20 19
11 13 6 2 3 9 12 11 11 10 10 10 13 15 13 10 11 8 8 8 10 12 13 14 15 16 16 15 15 15 16 16 17 17 17 18 18 18 18 19 20 20 20 20 20 19 18 18 17
6 6 4 1 9 12 11 10 9 10 11 10 12 11 12 11 10 10 9 9 11 13 14 15 17 17 16 16 16 15 16 16 17 17 17 18 18 18 18 18 19 19 19 19 18 17 16 16 15
8 4 2 5 11 11 11 10 10 11 12 13 15 14 13 13 12 12 9 9 10 12 14 15 16 16 16 16 15 15 15 16 16 16 16 17 17 18 18 17 18 18 18 17 17 15 14 14 12
5 3 1 6 11 11 11 10 11 12 12 13 14 14 11 11 11 10 9 9 10 13 14 14 15 16 15 15 15 15 15 15 15 15 15 16 16 17 17 17 18 17 17 16 15 14 13 12 11
6 4 2 7 11 11 11 10 10 11 12 12 13 13 11 11 10 10 8 8 10 12 13 13 13 13 14 14 14 13 13 13 14 14 14 14 15 15 16 16 15 15 15 15 14 13 12 11 9
5 3 3 8 10 11 10 11 11 13 12 10 10 10 10 11 10 10 9 9 10 10 10 10 12 13 12 12 13 12 12 12 12 12 12 13 14 14 15 15 13 13 13 13 13 12 11 9 7
4 3 5 8 9 10 11 11 11 11 11 11 12 15 13 13 11 10 9 10 9 8 7 8 9 10 11 12 12 11 11 11 10 10 10 10 10 12 13 14 13 12 12 11 11 10 10 9 8
2 2 7 7 9 11 11 10 10 10 12 14 15 15 14 13 11 10 10 10 8 7 7 7 7 7 8 9 10 9 8 9 6 7 8 7 7 9 12 14 14 12 11 10 10 10 9 8 7
3 6 7 8 10 10 11 10 9 10 11 13 15 15 13 12 10 10 10 9 8 6 6 7 6 5 6 5 6 5 6 7 7 7 7 7 6 7 10 9 10 10 10 8 9 9 7 7 5
4 5 6 8 9 9 9 10 9 10 12 15 16 15 12 11 10 10 10 10 8 6 6 7 7 5 5 4 4 4 4 5 5 5 5 5 3 3 4 4 6 6 6 5 5 4 4 3 3
2 4 6 7 8 9 9 10 11 13 14 16 16 14 12 10 9 10 10 9 8 7 7 8 7 6 4 3 1 4 4 5 6 5 4 4 3 3 3 3 2 2 3 4 2 3 3 2 2
1 3 5 6 6 7 9 9 10 12 14 15 14 12 11 10 10 10 10 9 8 7 8 8 8 6 4 2 2 3 4 4 5 5 5 4 3 3 3 2 2 2 2 2 2 2 2 2 2
1 1 1 5 6 6 6 8 9 11 13 14 13 12 11 10 9 10 10 10 9 8 8 8 8 7 4 4 2 3 3 5 5 5 5 4 4 4 2 2 2 2 2 2 2 1 1 2 2
3 4 3 3 4 6 4 5 10 12 12 12 12 12 11 10 10 10 10 9 9 9 8 7 8 9 6 3 1 1 3 4 4 5 6 5 4 4 2 2 2 3 3 2 2 1 1 1 1
6 5 5 4 5 6 6 6 11 13 12 12 12 12 12 11 10 10 11 10 10 9 8 6 6 8 6 5 3 1 2 3 2 3 4 5 4 4 3 2 2 3 2 2 2 2 1 1 2
8 6 6 6 6 6 6 6 10 11 11 12 12 13 12 12 11 11 11 12 11 10 9 7 6 7 6 4 3 2 2 3 2 2 3 4 3 4 3 3 3 1 2 2 2 3 2 2 2
10 7 6 5 6 6 6 7 9 11 10 11 12 13 13 13 13 12 12 13 12 11 9 8 7 6 4 4 3 3 3 3 3 3 4 4 3 3 2 1 2 2 2 2 2 2 2 2 2
10 7 6 5 6 5 5 5 7 10 11 11 12 13 14 14 14 13 12 13 13 12 10 9 8 7 5 4 3 3 3 3 3 3 4 4 4 4 4 3 3 3 3 2 2 2 1 2 2
10 9 6 4 4 4 3 5 7 8 9 11 12 14 14 15 16 15 14 13 14 13 12 11 9 8 7 5 4 3 3 2 2 4 4 3 4 4 2 3 2 2 3 3 3 2 2 2 2
9 9 7 6 7 5 5 5 7 10 11 12 12 13 14 15 16 16 15 14 13 14 13 10 10 9 8 6 5 4 4 3 3 3 3 4 4 4 4 3 2 2 2 2 3 3 2 2 2
9 9 8 8 9 7 8 6 6 10 11 11 12 12 14 15 16 17 16 14 14 14 14 12 10 9 8 7 6 4 3 3 2 3 4 4 4 4 4 4 3 2 1 2 1 1 2 2 2
9 10 9 8 7 9 11 9 6 7 10 11 12 12 13 15 16 17 16 15 14 14 14 14 12 10 9 8 6 5 4 3 2 2 3 4 3 4 4 4 3 2 2 2 2 2 3 2 2
11 10 7 8 7 9 11 8 5 7 8 10 11 11 11 14 15 16 16 16 14 14 14 14 13 11 10 9 7 6 5 5 4 3 4 4 3 3 4 4 3 2 2 2 2 3 3 3 2
12 12 10 9 8 9 9 7 4 7 7 7 9 11 12 12 14 16 16 16 14 14 14 14 14 12 11 10 8 6 6 5 4 4 3 3 2 2 4 4 3 3 3 3 2 2 3 2 2
14 13 13 11 11 10 7 4 4 5 8 8 9 10 11 11 12 15 16 17 16 15 13 13 14 12 11 10 8 7 7 5 4 4 4 2 2 3 3 4 4 3 3 3 2 2 3 2 2
16 13 10 10 9 9 7 6 4 5 7 8 8 9 11 11 11 13 14 15 15 14 13 13 13 12 10 10 9 8 7 6 4 4 3 3 2 1 2 3 3 3 3 3 3 3 3 2 2
14 15 12 9 9 10 9 5 3 5 5 7 8 8 10 10 11 10 10 12 13 13 14 13 12 12 10 9 8 6 7 6 6 4 3 3 2 2 3 3 3 3 3 3 3 3 2 2 2
15 16 15 11 9 9 9 6 4 4 5 5 6 6 8 9 10 11 11 11 11 12 12 12 12 12 11 9 8 7 7 6 6 5 4 4 4 3 3 3 3 3 3 2 2 3 2 3 3
Wind_Direction
195 209 212 233 240 220 63 64 65 65 66 60 58 66 65 55 60 85 74 63 77 86 86 83 77 80 82 83 83 81 80 82 85 87 87 87 89 91 96 101 104 107 109 111 112 114 115 115 117
219 222 223 248 285 70 65 62 63 62 69 74 70 69 70 66 69 90 86 78 77 83 81 79 86 88 90 87 87 85 84 85 87 91 91 91 91 93 96 101 105 108 110 112 113 115 117 119 122
249 254 255 247 40 65 73 71 75 73 70 75 77 69 65 75 78 89 96 95 84 84 86 86 90 93 94 91 89 87 86 88 89 92 93 95 95 96 98 102 104 108 111 113 114 116 120 122 126
243 247 244 81 65 67 76 84 86 84 79 77 80 75 73 75 89 98 101 98 94 96 93 92 95 95 93 92 91 89 88 90 92 94 95 97 97 98 99 102 105 108 112 113 114 116 120 123 128
246 263 263 78 82 81 77 76 81 79 76 79 87 89 87 87 93 100 104 102 99 96 99 100 100 97 95 95 93 93 92 93 96 98 99 99 100 102 102 104 109 110 111 113 115 118 120 124 129
265 269 312 84 83 83 82 81 82 83 90 94 97 98 95 104 105 105 103 101 104 103 102 107 106 104 101 99 97 97 97 97 100 102 104 105 104 104 105 105 111 112 114 115 117 119 121 124 127
260 289 22 84 93 87 86 87 85 89 87 94 104 102 109 114 114 113 108 105 102 105 110 117 118 114 110 105 103 102 103 102 104 108 110 111 111 111 111 110 111 115 119 119 121 123 125 128 133
257 279 35 77 92 95 96 92 91 92 88 100 108 106 119 123 123 118 115 110 102 103 112 122 126 127 124 119 115 114 114 114 114 117 121 122 123 123 122 120 119 121 123 126 128 130 133 138 146
272 293 45 68 93 106 106 101 100 101 103 93 88 106 124 129 126 124 120 108 98 102 109 118 123 132 131 127 128 131 129 131 132 136 143 142 137 133 132 125 130 133 134 135 136 141 146 155 170
224 55 68 72 93 107 107 108 119 113 105 99 97 108 125 133 133 131 122 115 111 112 111 113 115 119 125 128 138 148 140 145 147 141 147 142 134 132 130 136 143 145 146 149 156 160 167 178 183
91 72 78 85 93 107 111 113 110 109 112 115 120 127 135 138 140 132 126 121 122 129 118 107 102 112 117 114 133 133 131 136 133 125 129 133 133 136 135 150 152 159 160 166 164 175 186 183 188
77 82 87 88 94 101 106 108 101 100 112 121 126 134 138 143 141 138 131 129 134 137 126 116 108 90 81 99 117 129 125 126 120 128 120 119 118 118 124 141 150 158 157 159 161 176 164 158 167
113 105 95 94 103 104 109 106 106 104 115 123 129 137 144 145 143 138 134 134 137 137 124 108 105 96 83 58 67 120 110 117 117 123 112 114 120 111 106 102 113 134 138 150 162 146 150 156 153
88 92 106 116 117 122 117 113 113 117 126 130 135 143 151 150 149 141 142 140 146 144 130 126 126 122 116 106 46 82 110 112 119 119 115 108 106 109 115 122 122 142 143 138 144 146 150 143 133
24 316 155 155 148 130 117 121 126 132 136 140 145 150 153 154 151 148 147 148 151 146 136 136 139 132 135 132 150 124 130 134 123 126 130 128 126 127 140 146 153 160 173 155 138 129 163 156 151
223 223 227 226 175 150 146 138 140 147 148 148 154 155 158 156 156 152 147 148 145 141 138 150 148 138 139 140 162 120 124 119 127 138 142 141 142 147 161 149 166 183 177 151 147 167 179 121 142
242 229 210 221 211 163 172 157 154 163 157 156 161 161 164 161 162 157 151 150 140 136 136 142 134 137 145 151 155 138 105 106 124 132 138 140 146 149 163 152 162 194 167 167 167 133 139 165 177
229 220 211 203 194 181 166 155 163 170 167 163 165 166 169 165 166 160 156 150 141 138 137 141 139 135 144 149 151 158 136 135 146 133 137 137 154 160 171 170 173 176 135 158 141 153 178 200 221
236 224 228 211 194 194 173 164 179 175 176 171 169 169 171 169 166 161 161 156 149 145 143 144 147 143 148 156 166 172 163 162 159 156 151 155 167 161 178 157 156 174 163 162 158 174 188 195 192
253 249 247 225 195 203 188 184 193 189 182 178 176 172 172 169 165 162 165 162 158 152 151 152 157 155 161 162 169 171 169 167 164 151 141 161 170 179 187 168 195 190 158 169 180 168 227 226 169
253 254 246 252 246 245 245 222 199 202 189 181 180 174 173 173 169 167 171 170 164 160 163 166 161 161 168 170 167 176 163 179 152 148 157 174 180 186 186 182 209 181 177 176 187 185 214 236 230
259 267 264 255 257 248 239 245 212 200 195 187 183 177 175 173 169 172 175 175 169 165 166 160 158 161 166 176 175 182 173 179 171 163 162 170 179 190 186 188 195 205 195 167 195 173 232 230 246
260 270 274 268 263 260 244 245 216 198 192 185 185 184 179 174 171 173 176 173 172 168 167 163 159 162 166 178 182 188 189 188 179 166 165 173 187 194 199 185 186 200 210 179 216 164 231 250 272
254 261 269 270 272 263 261 252 220 204 188 182 183 183 180 174 171 170 172 170 172 169 167 166 161 165 170 179 182 185 192 199 201 198 181 189 191 196 195 181 183 189 203 197 216 216 225 236 266
239 243 252 250 249 252 259 256 205 186 182 180 174 176 178 172 171 168 168 169 171 171 170 166 162 168 174 180 186 182 190 204 204 216 213 206 201 193 185 185 178 188 197 206 211 211 239 239 246
239 239 239 247 247 252 244 242 206 165 159 159 165 169 172 174 171 168 167 167 172 173 169 164 165 171 177 182 186 184 186 202 202 209 226 214 210 183 170 171 178 192 205 212 197 230 228 228 241
245 244 249 256 258 265 262 240 194 156 157 159 165 164 169 175 172 168 167 169 173 174 170 167 165 171 178 181 180 186 189 201 205 195 213 221 207 192 166 172 182 192 194 215 213 219 246 230 233
242 251 255 252 264 268 252 250 224 187 172 164 168 167 167 172 169 168 167 169 171 172 168 165 164 170 175 180 184 188 188 193 199 206 202 203 207 198 171 176 185 195 201 210 220 220 224 227 237
232 243 250 257 259 264 263 259 217 193 192 174 168 166 164 166 161 158 161 164 165 167 169 168 165 167 174 179 179 178 177 186 197 202 197 200 205 194 195 200 201 202 210 213 218 226 228 218 236
242 241 243 248 252 261 265 265 259 190 174 160 148 149 156 156 157 156 155 153 159 165 168 168 169 171 176 177 175 179 179 186 195 194 196 199 202 201 201 203 206 217 211 210 214 238 244 233 231
Height
1473 1473 1474 1477 1476 1476 1472 1466 1463 1466 1468 1470 1471 1472 1477 1481 1487 1498 1497 1495 1494 1492 1489 1485 1483 1483 1484 1486 1487 1487 1487 1487 1488 1488 1489 1490 1491 1493 1494 1495 1497 1500 1503 1505 1508 1511 1514 1517 1520
1473 1474 1477 1475 1474 1479 1476 1466 1467 1468 1470 1472 1474 1476 1480 1486 1490 1495 1496 1496 1495 1493 1489 1485 1482 1483 1486 1489 1490 1491 1491 1490 1490 1491 1493 1494 1495 1496 1498 1499 1502 1505 1507 1510 1512 1515 1518 1520 1523
1473 1475 1476 1471 1472 1474 1475 1468 1468 1470 1472 1473 1476 1480 1485 1491 1494 1496 1498 1498 1497 1494 1491 1488 1485 1486 1490 1492 1493 1494 1494 1494 1494 1495 1496 1497 1499 1500 1502 1503 1506 1509 1511 1514 1516 1519 1521 1524 1526
1475 1474 1472 1470 1472 1466 1466 1466 1468 1470 1473 1475 1478 1484 1491 1494 1496 1498 1499 1499 1498 1497 1495 1493 1492 1493 1494 1496 1497 1497 1497 1497 1498 1499 1500 1501 1503 1504 1505 1507 1509 1512 1515 1517 1520 1522 1524 1527 1529
1476 1474 1471 1470 1468 1464 1464 1466 1468 1472 1475 1478 1482 1488 1494 1497 1498 1499 1500 1500 1500 1500 1498 1498 1497 1498 1498 1499 1500 1500 1501 1501 1502 1503 1504 1505 1506 1508 1509 1510 1513 1516 1518 1521 1523 1525 1527 1529 1532
1474 1470 1473 1473 1468 1464 1465 1468 1470 1474 1477 1480 1484 1490 1496 1499 1499 1500 1501 1502 1502 1502 1501 1501 1501 1501 1502 1502 1503 1504 1504 1505 1505 1506 1508 1509 1510 1512 1513 1514 1516 1519 1522 1524 1526 1528 1530 1532 1534
1473 1469 1468 1465 1468 1468 1468 1470 1472 1474 1478 1482 1485 1490 1497 1500 1501 1501 1503 1504 1504 1504 1504 1504 1504 1504 1505 1505 1506 1507 1508 1508 1509 1510 1511 1513 1514 1516 1517 1519 1521 1523 1525 1527 1529 1531 1533 1535 1537
1467 1465 1464 1463 1467 1470 1468 1470 1473 1477 1481 1484 1486 1490 1497 1500 1501 1502 1504 1505 1506 1507 1507 1507 1507 1508 1508 1509 1509 1510 1511 1512 1513 1513 1515 1516 1518 1519 1521 1523 1524 1526 1528 1529 1531 1533 1535 1537 1539
1464 1465 1468 1464 1465 1467 1467 1471 1475 1478 1481 1484 1487 1491 1497 1500 1502 1503 1505 1507 1508 1509 1510 1511 1511 1511 1512 1512 1513 1514 1514 1515 1516 1517 1518 1519 1521 1522 1524 1526 1528 1529 1531 1532 1534 1536 1538 1540 1541
1461 1466 1465 1459 1459 1463 1467 1471 1474 1477 1481 1486 1491 1495 1498 1501 1503 1504 1506 1507 1509 1511 1512 1512 1513 1514 1515 1516 1516 1516 1517 1518 1519 1520 1521 1523 1524 1526 1527 1529 1531 1532 1533 1535 1536 1538 1540 1541 1543
1457 1461 1457 1458 1460 1463 1466 1470 1473 1476 1481 1487 1492 1496 1499 1501 1504 1505 1507 1509 1510 1512 1513 1514 1515 1516 1517 1518 1519 1519 1520 1521 1522 1523 1524 1525 1527 1528 1530 1531 1532 1534 1535 1537 1538 1540 1541 1542 1544
1456 1457 1457 1459 1462 1464 1467 1470 1474 1477 1482 1487 1492 1496 1499 1502 1504 1506 1508 1509 1511 1512 1514 1515 1516 1517 1518 1519 1520 1521 1522 1523 1524 1525 1526 1527 1529 1530 1532 1533 1534 1535 1537 1538 1540 1541 1542 1544 1545
1457 1457 1459 1461 1462 1465 1468 1470 1474 1479 1484 1488 1492 1496 1499 1501 1504 1506 1508 1510 1512 1513 1514 1516 1516 1517 1519 1520 1521 1523 1524 1525 1525 1526 1528 1529 1530 1532 1533 1534 1535 1537 1538 1539 1541 1542 1543 1544 1545
1457 1458 1459 1461 1463 1465 1468 1471 1475 1480 1484 1489 1493 1496 1499 1501 1503 1506 1508 1510 1511 1513 1515 1516 1517 1518 1519 1520 1521 1523 1524 1526 1527 1527 1528 1530 1531 1532 1533 1535 1536 1537 1539 1540 1541 1542 1543 1544 1545
1459 1462 1462 1461 1462 1464 1468 1474 1475 1480 1484 1488 1492 1496 1498 1501 1503 1505 1507 1509 1511 1513 1514 1516 1518 1518 1520 1521 1522 1524 1525 1527 1527 1528 1529 1530 1532 1533 1534 1535 1536 1538 1539 1540 1541 1542 1543 1544 1545
1461 1468 1474 1464 1460 1463 1471 1482 1474 1478 1482 1486 1490 1494 1498 1500 1503 1505 1507 1509 1511 1512 1514 1516 1519 1519 1520 1522 1523 1525 1526 1527 1528 1529 1530 1531 1532 1533 1535 1536 1537 1538 1539 1540 1541 1542 1543 1544 1544
1469 1476 1476 1468 1460 1459 1466 1475 1472 1475 1479 1483 1488 1492 1496 1499 1502 1504 1506 1508 1510 1512 1514 1516 1518 1519 1520 1522 1523 1525 1526 1528 1529 1530 1531 1531 1532 1534 1535 1536 1537 1538 1539 1540 1541 1541 1542 1543 1544
1474 1473 1472 1468 1459 1458 1463 1468 1469 1472 1474 1479 1484 1489 1493 1497 1500 1503 1506 1508 1510 1512 1514 1516 1518 1519 1520 1522 1523 1525 1527 1528 1529 1530 1531 1532 1533 1534 1535 1536 1537 1538 1539 1540 1541 1541 1542 1542 1543
1456 1462 1464 1459 1453 1456 1461 1464 1465 1468 1471 1475 1480 1485 1489 1494 1498 1501 1504 1507 1509 1511 1513 1515 1517 1518 1520 1521 1523 1525 1526 1527 1529 1530 1531 1531 1532 1534 1535 1536 1537 1538 1539 1539 1540 1540 1541 1542 1543
1451 1457 1459 1454 1448 1453 1459 1462 1462 1463 1466 1471 1475 1480 1485 1491 1495 1499 1502 1505 1508 1510 1512 1514 1516 1518 1519 1521 1523 1524 1526 1527 1528 1530 1530 1531 1532 1533 1535 1536 1537 1538 1538 1539 1540 1540 1541 1542 1543
1450 1453 1454 1455 1450 1450 1460 1467 1464 1461 1463 1466 1471 1475 1481 1486 1491 1496 1500 1503 1506 1508 1510 1512 1514 1516 1519 1520 1522 1524 1526 1527 1528 1529 1530 1531 1532 1533 1534 1535 1536 1537 1538 1538 1539 1540 1541 1541 1542
1455 1445 1446 1451 1458 1465 1464 1483 1469 1461 1461 1463 1467 1471 1476 1481 1487 1492 1496 1500 1503 1506 1508 1511 1513 1515 1517 1519 1521 1523 1525 1526 1528 1528 1529 1530 1531 1532 1533 1534 1535 1536 1537 1538 1539 1539 1540 1540 1541
1448 1443 1446 1450 1456 1465 1463 1473 1469 1457 1461 1460 1462 1467 1471 1477 1482 1488 1492 1497 1501 1504 1507 1509 1511 1514 1516 1518 1520 1522 1524 1525 1527 1528 1529 1530 1531 1532 1533 1534 1534 1535 1536 1537 1538 1538 1539 1539 1540
1442 1446 1449 1452 1461 1480 1468 1469 1471 1456 1454 1454 1458 1463 1467 1473 1478 1484 1489 1494 1498 1502 1505 1507 1509 1512 1515 1517 1519 1521 1522 1524 1526 1527 1528 1529 1530 1531 1532 1532 1533 1534 1535 1536 1537 1537 1538 1538 1538
1443 1458 1476 1483 1486 1483 1460 1462 1459 1446 1444 1447 1453 1459 1464 1469 1475 1480 1486 1491 1495 1499 1502 1505 1507 1510 1513 1515 1517 1519 1521 1522 1524 1525 1526 1528 1529 1529 1530 1531 1532 1533 1534 1535 1535 1536 1536 1537 1537
1444 1452 1476 1491 1493 1478 1461 1465 1450 1439 1442 1446 1451 1456 1462 1467 1472 1477 1482 1487 1492 1496 1500 1503 1505 1507 1510 1513 1515 1517 1519 1521 1522 1523 1525 1526 1527 1528 1529 1530 1531 1532 1532 1533 1534 1535 1535 1535 1535
1445 1447 1444 1460 1470 1477 1468 1456 1446 1438 1441 1446 1450 1454 1460 1465 1469 1474 1479 1484 1489 1493 1497 1500 1502 1505 1508 1511 1513 1515 1517 1519 1521 1522 1523 1524 1526 1527 1528 1528 1529 1530 1531 1532 1532 1533 1533 1533 1533
1436 1439 1447 1458 1478 1485 1475 1467 1460 1449 1446 1446 1449 1453 1458 1463 1467 1471 1476 1481 1486 1490 1494 1498 1500 1503 1506 1509 1511 1513 1515 1517 1518 1520 1521 1522 1524 1525 1526 1527 1528 1528 1529 1530 1530 1531 1531 1531 1531
1439 1442 1444 1449 1457 1475 1484 1471 1444 1446 1446 1445 1448 1451 1456 1460 1465 1470 1474 1479 1483 1488 1492 1495 1498 1501 1504 1506 1509 1511 1513 1515 1516 1518 1519 1520 1521 1523 1524 1525 1526 1526 1527 1528 1528 1529 1529 1529 1529
1431 1435 1440 1457 1462 1460 1469 1470 1440 1440 1442 1444 1447 1451 1454 1459 1463 1467 1472 1476 1481 1485 1489 1493 1496 1498 1501 1504 1507 1509 1511 1513 1514 1515 1516 1518 1519 1520 1522 1523 1524 1525 1525 1525 1526 1526 1527 1527 1527